Regional Weather Roundup
Issued by NWS Green Bay, WI

Home | Current Version | Previous Version | Graphics & Text | Print | Product List | Glossary Off
Versions: 1 2 3 4 5 6 7 8 9 10 11 12 13 14 15 16 17 18 19 20 21 22 23 24 25 26 27 28 29 30 31 32 33 34 35 36 37 38 39 40 41 42 43 44 45 46 47 48 49 50

000
ASUS43 KGRB 192059
RWRGRB

NORTH-CENTRAL AND NORTHEAST WISCONSIN REGIONAL WEATHER ROUNDUP
NATIONAL WEATHER SERVICE GREEN BAY WI
400 PM CDT FRI SEP 19 2014

WIZ005-009-010>012-018-019-192200-
NORTH CENTRAL WISCONSIN

CITY           SKY/WX    TMP DP  RH WIND       PRES   REMARKS
IRONWOOD       PTSUNNY   66  55  68 SW14G23   29.69S
MANITOWISH WTR NOT AVBL
ARBOR VITAE    NOT AVBL
EAGLE RIVER    NOT AVBL
LAND O LAKES   NOT AVBL
RHINELANDER    MOSUNNY   68  51  54 S18G35    29.80F
PHILLIPS       NOT AVBL
ANTIGO         NOT AVBL
TOMAHAWK       NOT AVBL
MERRILL        NOT AVBL
$$

WIZ013-073-192200-
NORTHEAST WISCONSIN

CITY           SKY/WX    TMP DP  RH WIND       PRES   REMARKS
IRON MOUNTAIN  PTSUNNY   68  51  54 S18G28    29.82R
MARINETTE      PTSUNNY   64  55  72 S17G31    29.83F
$$

WIZ017-030-035>037-045-192200-
CENTRAL WISCONSIN

CITY           SKY/WX    TMP DP  RH WIND       PRES   REMARKS
MEDFORD        NOT AVBL
WAUSAU         MOSUNNY   71  53  52 S24G31    29.81F
MOSINEE        NOT AVBL
MARSHFIELD     PTSUNNY   72  54  53 S24G35    29.80F
WISC RAPIDS    MOSUNNY   72  52  49 SW20G30   29.87F
STEVENS POINT  NOT AVBL
WAUPACA        NOT AVBL
SHAWANO        PTSUNNY   72  50  46 SW13G23   29.88F
CLINTONVILLE   PTSUNNY   72  50  46 S17G23    29.88S
$$

WIZ038-039-048-051-192200-
FOX VALLEY

CITY           SKY/WX    TMP DP  RH WIND       PRES   REMARKS
NWS GREEN BAY  MOSUNNY   72  51  47 S17G26    29.89F
APPLETON       PTSUNNY   72  48  43 S26G32    29.90F
OSHKOSH        MOSUNNY   72  50  45 S21G41    29.91F
FOND DU LAC    MOSUNNY   72  48  42 S18G32    29.92F
$$

WIZ022-050-052-192200-
EAST CENTRAL WISCONSIN

CITY           SKY/WX    TMP DP  RH WIND       PRES   REMARKS
STURGEON BAY   PTSUNNY   63  55  77 S21G31    29.91F
MANITOWOC      NOT AVBL
SHEBOYGAN      SUNNY     69  53  56 S18G26    29.95F
$$

LMZ563-521-522-541>543-192200-
LAKESHORE

STATION/POSITION TIME  TEMP    WIND        PRES    VSBY  WAVE
                       AIR SEA DIR/SP/G                  HT/PER
                 (UTC) (F)     (DEG/KT/KT) (MB)    (MI)  (FT/S)
SHEBOYGAN LKSHOR 2000   57 54  180/ 17/ 20 1015.6F
KEWAUNEE LKSHORE 2000   57     180/ 18/ 21 1013.3F
NORTHPORT PIER   2000   60     160/ 14/ 26 1012.5F
N MID LAKE BUOY  2000   60 58  190/ 25/ 29 1013.7F         6/ 7
S GREEN BAY BUOY 2000   65     VRB 16/ 19  1013.0F
CHAMBERS ISLAND  2000   63     140/ 12/ 20 1012.9F
MENOMINEE LKSHOR 2000   62     160/ 21/ 26 1012.3F
$$



USA.gov is the U.S. government's official web portal to all federal, state and local government web resources and services.